SAS57B EKCH-EBBR

Flight info

Callsign SAS57B
Flight time N/A
Altitude 34000
Route NEXEN T503 GIMRU DCT MICOS DCT KEGAB DCT ABAMI Z717 NEREL/N0359F240 T855 AGENI/N0329F180 T855 BATTY
Aircraft A20N/M-SDE2E3FGHIRWXY/LB1

Departure

Time 2026-04-25 09:13
Airport Copenhagen Kastrup Airport (EKCH)

Arrival

Time N/A
Airport Brussels Airport (EBBR)
Time Latitude Longitude Altitude Speed Heading
2026-04-25 08:47 55.62813 12.64224 24 ft 0 kts 123°
2026-04-25 09:03 55.62815 12.64218 26 ft 2 kts 124°
2026-04-25 09:03 55.62827 12.64190 25 ft 3 kts 130°
2026-04-25 09:03 55.62840 12.64163 23 ft 3 kts 126°
2026-04-25 09:04 55.62849 12.64135 27 ft 2 kts 96°
2026-04-25 09:04 55.62850 12.64103 27 ft 3 kts 72°
2026-04-25 09:04 55.62840 12.64074 28 ft 3 kts 46°
2026-04-25 09:04 55.62828 12.64047 28 ft 3 kts 71°
2026-04-25 09:05 55.62823 12.64014 28 ft 3 kts 88°
2026-04-25 09:05 55.62824 12.63989 27 ft 3 kts 108°
2026-04-25 09:05 55.62829 12.63955 24 ft 3 kts 104°
2026-04-25 09:05 55.62834 12.63921 27 ft 2 kts 104°
2026-04-25 09:06 55.62836 12.63913 27 ft 0 kts 104°
2026-04-25 09:07 55.62835 12.63915 27 ft 1 kts 104°
2026-04-25 09:07 55.62827 12.63960 25 ft 6 kts 118°
2026-04-25 09:08 55.62793 12.63961 23 ft 8 kts 193°
2026-04-25 09:08 55.62734 12.63910 27 ft 11 kts 212°
2026-04-25 09:08 55.62652 12.63871 25 ft 14 kts 144°
2026-04-25 09:08 55.62578 12.64060 24 ft 24 kts 123°
2026-04-25 09:09 55.62471 12.64339 23 ft 29 kts 129°
2026-04-25 09:09 55.62348 12.64648 24 ft 32 kts 123°
2026-04-25 09:09 55.62234 12.64954 27 ft 21 kts 123°
2026-04-25 09:09 55.62202 12.65176 25 ft 20 kts 30°
2026-04-25 09:10 55.62293 12.65317 23 ft 19 kts 84°
2026-04-25 09:10 55.62298 12.65571 23 ft 22 kts 88°
2026-04-25 09:10 55.62301 12.65855 27 ft 24 kts 89°
2026-04-25 09:10 55.62313 12.66054 23 ft 24 kts 91°
2026-04-25 09:11 55.62058 12.66275 23 ft 31 kts 162°
2026-04-25 09:11 55.61850 12.66394 25 ft 33 kts 161°
2026-04-25 09:11 55.61629 12.66528 25 ft 34 kts 159°
2026-04-25 09:12 55.61448 12.66796 25 ft 32 kts 123°
2026-04-25 09:12 55.61402 12.67028 25 ft 16 kts 47°
2026-04-25 09:12 55.61373 12.67126 24 ft 14 kts 202°
2026-04-25 09:12 55.61285 12.67038 26 ft 14 kts 235°
2026-04-25 09:13 55.61335 12.66836 27 ft 40 kts 303°
2026-04-25 09:13 55.61611 12.66092 28 ft 101 kts 303°
2026-04-25 09:13 55.62085 12.64804 55 ft 144 kts 302°
2026-04-25 09:13 55.62624 12.63324 690 ft 140 kts 303°
2026-04-25 09:14 55.63140 12.61896 1445 ft 137 kts 302°
2026-04-25 09:14 55.63672 12.60470 2030 ft 145 kts 303°
2026-04-25 09:14 55.64266 12.58876 2446 ft 165 kts 298°
2026-04-25 09:14 55.64636 12.56819 2876 ft 188 kts 289°
2026-04-25 09:15 55.65088 12.54507 3345 ft 209 kts 292°
2026-04-25 09:15 55.65634 12.51985 3907 ft 228 kts 292°
2026-04-25 09:15 55.66200 12.49305 4761 ft 234 kts 291°
2026-04-25 09:15 55.66749 12.46582 5776 ft 232 kts 291°
2026-04-25 09:16 55.67272 12.43906 6835 ft 230 kts 290°
2026-04-25 09:16 55.67717 12.41160 7739 ft 234 kts 280°
2026-04-25 09:16 55.67605 12.38250 8663 ft 244 kts 260°
2026-04-25 09:16 55.66800 12.35518 9584 ft 262 kts 238°
2026-04-25 09:17 55.63467 12.31706 10583 ft 316 kts 213°
2026-04-25 09:17 55.61378 12.30086 10914 ft 336 kts 212°
2026-04-25 09:17 55.59244 12.28441 11628 ft 340 kts 212°
2026-04-25 09:18 55.57076 12.26705 12418 ft 344 kts 213°
2026-04-25 09:18 55.54901 12.24895 13183 ft 348 kts 213°
2026-04-25 09:18 55.52710 12.23029 13919 ft 351 kts 214°
2026-04-25 09:18 55.50498 12.21128 14614 ft 354 kts 214°
2026-04-25 09:19 55.48275 12.19213 15318 ft 357 kts 214°
2026-04-25 09:19 55.46029 12.17279 15986 ft 360 kts 214°
2026-04-25 09:19 55.43764 12.15332 16651 ft 364 kts 214°
2026-04-25 09:19 55.41477 12.13370 17296 ft 367 kts 213°
2026-04-25 09:20 55.39171 12.11396 17970 ft 370 kts 213°
2026-04-25 09:20 55.36840 12.09403 18557 ft 374 kts 213°
2026-04-25 09:20 55.34518 12.07421 19108 ft 377 kts 213°
2026-04-25 09:20 55.32184 12.05432 19649 ft 381 kts 213°
2026-04-25 09:21 55.29753 12.03363 20214 ft 384 kts 213°
2026-04-25 09:21 55.27336 12.01308 20758 ft 388 kts 213°
2026-04-25 09:21 55.24898 11.99240 21305 ft 391 kts 213°
2026-04-25 09:21 55.22434 11.97151 21837 ft 395 kts 213°
2026-04-25 09:22 55.19948 11.95046 22360 ft 398 kts 213°
2026-04-25 09:22 55.17441 11.92927 22887 ft 402 kts 213°
2026-04-25 09:22 55.14905 11.90787 23403 ft 406 kts 213°
2026-04-25 09:22 55.12350 11.88634 23842 ft 409 kts 213°
2026-04-25 09:23 55.09778 11.86469 24284 ft 412 kts 213°
2026-04-25 09:23 55.07188 11.84293 24708 ft 415 kts 213°
2026-04-25 09:23 55.04574 11.82099 25126 ft 418 kts 213°
2026-04-25 09:23 55.01943 11.79894 25539 ft 421 kts 213°
2026-04-25 09:24 54.99324 11.77702 25946 ft 424 kts 213°
2026-04-25 09:24 54.96656 11.75473 26328 ft 426 kts 212°
2026-04-25 09:24 54.93967 11.73230 26715 ft 429 kts 212°
2026-04-25 09:24 54.91259 11.70975 27089 ft 432 kts 212°
2026-04-25 09:25 54.88542 11.68715 27470 ft 435 kts 212°
2026-04-25 09:25 54.85799 11.66437 27820 ft 437 kts 212°
2026-04-25 09:25 54.83048 11.64156 28175 ft 440 kts 212°
2026-04-25 09:25 54.80373 11.61610 28509 ft 436 kts 219°
2026-04-25 09:26 54.77893 11.58606 28828 ft 436 kts 223°
2026-04-25 09:26 54.75460 11.55542 29144 ft 438 kts 223°
2026-04-25 09:26 54.72987 11.52435 29453 ft 441 kts 222°
2026-04-25 09:26 54.70493 11.49316 29749 ft 443 kts 222°
2026-04-25 09:27 54.67977 11.46182 30056 ft 446 kts 222°
2026-04-25 09:27 54.65451 11.43046 30337 ft 448 kts 222°
2026-04-25 09:27 54.62919 11.39908 30637 ft 449 kts 222°
2026-04-25 09:27 54.60379 11.36766 30916 ft 451 kts 221°
2026-04-25 09:28 54.57823 11.33610 31262 ft 451 kts 221°
2026-04-25 09:28 54.55276 11.30471 31656 ft 449 kts 221°
2026-04-25 09:28 54.52726 11.27354 32052 ft 448 kts 221°
2026-04-25 09:28 54.50218 11.24305 32433 ft 447 kts 221°
2026-04-25 09:29 54.47678 11.21224 32806 ft 445 kts 221°
2026-04-25 09:29 54.45154 11.18163 33161 ft 444 kts 221°
2026-04-25 09:29 54.42630 11.15104 33496 ft 443 kts 221°
2026-04-25 09:29 54.40110 11.12055 33832 ft 442 kts 221°
2026-04-25 09:30 54.37620 11.09046 33994 ft 442 kts 221°
2026-04-25 09:30 54.32576 11.02964 34006 ft 441 kts 221°
2026-04-25 09:31 54.27544 10.96941 34003 ft 441 kts 221°
2026-04-25 09:31 54.22481 10.90971 34007 ft 442 kts 220°
2026-04-25 09:32 54.17426 10.85017 34015 ft 442 kts 221°
2026-04-25 09:32 54.12389 10.79098 34022 ft 442 kts 220°
2026-04-25 09:33 54.07315 10.73153 34029 ft 443 kts 220°
2026-04-25 09:33 54.02236 10.67220 34043 ft 443 kts 220°
2026-04-25 09:34 53.97160 10.61310 34047 ft 443 kts 220°
2026-04-25 09:34 53.92065 10.55393 34052 ft 443 kts 220°
2026-04-25 09:35 53.89147 10.52014 34046 ft 443 kts 220°